| time (UTC) | temp F | wind direction | speed MPH | gust MPH | rain 1hr in | rain 24hr in | rain mn in | humidity % | barometer mb |
| 20260831132047 | 63 | 209 | 2.0 | 7.0 | 0.00 | 0.22 | 0.09 | 95 | 1005.7 |
| 20260831131545 | 63 | 169 | 2.0 | 7.0 | 0.00 | 0.22 | 0.09 | 95 | 1005.7 |
| 20260831131045 | 63 | 207 | 3.0 | 5.0 | 0.00 | 0.22 | 0.09 | 96 | 1005.7 |
| 20260831130545 | 62 | 173 | 2.0 | 5.0 | 0.00 | 0.22 | 0.09 | 96 | 1005.7 |
| 20260831130049 | 62 | 130 | 1.0 | 5.0 | 0.00 | 0.22 | 0.09 | 96 | 1005.7 |
| 20260831125545 | 61 | 253 | 1.0 | 4.0 | 0.00 | 0.23 | 0.09 | 96 | 1005.7 |
| 20260831125045 | 61 | 170 | 1.0 | 5.0 | 0.00 | 0.23 | 0.09 | 96 | 1005.8 |
| 20260831124551 | 60 | 216 | 1.0 | 3.0 | 0.00 | 0.23 | 0.09 | 96 | 1005.9 |
| 20260831124045 | 60 | 176 | 1.0 | 3.0 | 0.00 | 0.23 | 0.09 | 95 | 1005.9 |
| 20260831123545 | 60 | 186 | 0.0 | 3.0 | 0.00 | 0.23 | 0.09 | 95 | 1006.0 |
| 20260831123045 | 60 | 219 | 0.0 | 2.0 | 0.00 | 0.23 | 0.09 | 95 | 1006.0 |
| 20260831122547 | 60 | 219 | 0.0 | 2.0 | 0.00 | 0.23 | 0.09 | 95 | 1005.9 |
| 20260831122045 | 59 | 219 | 0.0 | 2.0 | 0.00 | 0.23 | 0.09 | 96 | 1005.9 |
| 20260831121546 | 59 | 219 | 0.0 | 3.0 | 0.01 | 0.23 | 0.09 | 95 | 1006.0 |
| 20260831121044 | 59 | 182 | 0.0 | 3.0 | 0.01 | 0.23 | 0.09 | 95 | 1006.0 |
| 20260831120543 | 59 | 182 | 1.0 | 3.0 | 0.01 | 0.23 | 0.09 | 94 | 1006.0 |
| 20260831120044 | 59 | 212 | 0.0 | 3.0 | 0.01 | 0.23 | 0.09 | 94 | 1006.0 |
| 20260831115544 | 59 | 213 | 1.0 | 3.0 | 0.01 | 0.24 | 0.09 | 94 | 1006.0 |
| 20260831115043 | 59 | 212 | 0.0 | 3.0 | 0.01 | 0.24 | 0.09 | 94 | 1006.0 |
| 20260831114544 | 59 | 212 | 0.0 | 3.0 | 0.01 | 0.24 | 0.09 | 94 | 1006.0 |
| 20260831114043 | 59 | 213 | 1.0 | 3.0 | 0.01 | 0.24 | 0.09 | 94 | 1006.0 |
| 20260831113543 | 59 | 261 | 1.0 | 3.0 | 0.01 | 0.24 | 0.09 | 93 | 1005.9 |
| 20260831113044 | 60 | 194 | 1.0 | 6.0 | 0.01 | 0.24 | 0.09 | 93 | 1005.9 |
| 20260831112542 | 60 | 200 | 2.0 | 6.0 | 0.01 | 0.24 | 0.09 | 93 | 1006.0 |
| 20260831112047 | 61 | 178 | 0.0 | 4.0 | 0.01 | 0.24 | 0.09 | 93 | 1005.7 |
| 20260831111543 | 61 | 215 | 1.0 | 12.0 | 0.00 | 0.24 | 0.09 | 92 | 1005.5 |
| 20260831111041 | 62 | 165 | 4.0 | 12.0 | 0.01 | 0.24 | 0.09 | 92 | 1005.7 |
| 20260831110541 | 63 | 210 | 6.0 | 12.0 | 0.01 | 0.24 | 0.09 | 92 | 1005.8 |
| 20260831110045 | 64 | 190 | 4.0 | 10.0 | 0.01 | 0.24 | 0.09 | 93 | 1005.8 |
| 20260831105541 | 64 | 190 | 4.0 | 8.0 | 0.01 | 0.26 | 0.09 | 92 | 1005.8 |
| 20260831105041 | 64 | 218 | 3.0 | 6.0 | 0.01 | 0.26 | 0.09 | 92 | 1005.8 |
| 20260831104558 | 65 | 147 | 2.0 | 9.0 | 0.01 | 0.26 | 0.09 | 92 | 1005.7 |
| 20260831104040 | 65 | 188 | 3.0 | 9.0 | 0.01 | 0.26 | 0.09 | 92 | 1005.7 |
| 20260831103543 | 65 | 136 | 3.0 | 10.0 | 0.01 | 0.26 | 0.09 | 91 | 1005.7 |
| 20260831103039 | 65 | 194 | 4.0 | 10.0 | 0.01 | 0.26 | 0.09 | 90 | 1005.7 |
| 20260831102538 | 66 | 158 | 2.0 | 8.0 | 0.01 | 0.26 | 0.09 | 92 | 1005.8 |
| 20260831102037 | 65 | 149 | 4.0 | 11.0 | 0.01 | 0.26 | 0.09 | 92 | 1005.9 |
| 20260831101536 | 65 | 180 | 4.0 | 11.0 | 0.01 | 0.26 | 0.09 | 92 | 1005.9 |
| 20260831101035 | 65 | 182 | 3.0 | 11.0 | 0.00 | 0.25 | 0.08 | 93 | 1006.0 |
| 20260831100534 | 64 | 203 | 5.0 | 11.0 | 0.00 | 0.25 | 0.08 | 94 | 1005.9 |
| 20260831100038 | 64 | 186 | 4.0 | 11.0 | 0.00 | 0.25 | 0.08 | 94 | 1006.0 |
| 20260831095532 | 64 | 187 | 3.0 | 9.0 | 0.00 | 0.28 | 0.08 | 94 | 1006.0 |
| 20260831095031 | 64 | 197 | 3.0 | 7.0 | 0.00 | 0.28 | 0.08 | 95 | 1006.0 |
| 20260831094538 | 64 | 196 | 2.0 | 12.0 | 0.00 | 0.28 | 0.08 | 96 | 1006.1 |
| 20260831094029 | 63 | 95 | 3.0 | 11.0 | 0.00 | 0.28 | 0.08 | 96 | 1006.1 |
| 20260831093528 | 63 | 196 | 6.0 | 11.0 | 0.00 | 0.28 | 0.08 | 95 | 1006.3 |
| 20260831093032 | 63 | 204 | 4.0 | 7.0 | 0.00 | 0.28 | 0.08 | 95 | 1006.2 |
| 20260831092526 | 63 | 141 | 2.0 | 10.0 | 0.01 | 0.28 | 0.08 | 95 | 1006.2 |
| 20260831092027 | 63 | 178 | 4.0 | 9.0 | 0.01 | 0.28 | 0.08 | 95 | 1006.3 |
| 20260831091525 | 63 | 188 | 3.0 | 10.0 | 0.01 | 0.28 | 0.08 | 96 | 1006.3 |
| 20260831091024 | 63 | 174 | 3.0 | 10.0 | 0.01 | 0.28 | 0.08 | 96 | 1006.5 |
| 20260831090524 | 63 | 203 | 4.0 | 10.0 | 0.01 | 0.28 | 0.08 | 96 | 1006.5 |
| 20260831090023 | 63 | 162 | 3.0 | 8.0 | 0.01 | 0.28 | 0.08 | 97 | 1006.6 |
| 20260831085523 | 62 | 138 | 3.0 | 8.0 | 0.01 | 0.30 | 0.08 | 96 | 1006.6 |
| 20260831085021 | 62 | 153 | 2.0 | 6.0 | 0.01 | 0.30 | 0.08 | 96 | 1006.7 |
| 20260831084533 | 62 | 131 | 2.0 | 10.0 | 0.01 | 0.30 | 0.08 | 96 | 1006.6 |
| 20260831084020 | 61 | 186 | 3.0 | 10.0 | 0.01 | 0.30 | 0.08 | 96 | 1006.7 |
| 20260831083520 | 61 | 202 | 2.0 | 9.0 | 0.01 | 0.30 | 0.08 | 96 | 1006.7 |
| 20260831083035 | 61 | 192 | 2.0 | 6.0 | 0.00 | 0.28 | 0.07 | 96 | 1006.7 |
| 20260831082518 | 61 | 155 | 1.0 | 9.0 | 0.00 | 0.28 | 0.07 | 95 | 1006.7 |
| 20260831082018 | 62 | 188 | 3.0 | 10.0 | 0.00 | 0.28 | 0.07 | 95 | 1006.8 |
| 20260831081517 | 62 | 178 | 2.0 | 9.0 | 0.00 | 0.28 | 0.07 | 95 | 1006.7 |
| 20260831081019 | 62 | 219 | 4.0 | 10.0 | 0.00 | 0.28 | 0.07 | 95 | 1006.8 |
| 20260831080516 | 62 | 198 | 3.0 | 10.0 | 0.00 | 0.28 | 0.07 | 95 | 1006.8 |
| 20260831080026 | 62 | 196 | 3.0 | 7.0 | 0.01 | 0.28 | 0.07 | 95 | 1006.9 |
| 20260831075516 | 62 | 192 | 3.0 | 7.0 | 0.01 | 0.31 | 0.07 | 95 | 1006.9 |
| 20260831075016 | 62 | 187 | 4.0 | 7.0 | 0.01 | 0.31 | 0.07 | 95 | 1006.9 |
| 20260831074517 | 62 | 179 | 2.0 | 8.0 | 0.01 | 0.31 | 0.07 | 95 | 1007.0 |
| 20260831074017 | 62 | 216 | 3.0 | 9.0 | 0.01 | 0.31 | 0.07 | 95 | 1006.9 |
| 20260831073515 | 62 | 178 | 3.0 | 9.0 | 0.01 | 0.31 | 0.07 | 95 | 1006.9 |
| 20260831073019 | 62 | 194 | 2.0 | 8.0 | 0.01 | 0.31 | 0.07 | 96 | 1006.8 |
| 20260831072513 | 62 | 200 | 3.0 | 8.0 | 0.01 | 0.31 | 0.07 | 96 | 1007.0 |
| 20260831072013 | 62 | 182 | 2.0 | 7.0 | 0.01 | 0.31 | 0.07 | 96 | 1007.0 |
| 20260831071512 | 61 | 178 | 1.0 | 5.0 | 0.01 | 0.31 | 0.07 | 97 | 1007.0 |
| 20260831071011 | 61 | 188 | 2.0 | 5.0 | 0.01 | 0.31 | 0.07 | 96 | 1007.1 |
| 20260831070510 | 61 | 186 | 2.0 | 5.0 | 0.01 | 0.31 | 0.07 | 97 | 1007.0 |
| 20260831070011 | 61 | 273 | 1.0 | 5.0 | 0.00 | 0.30 | 0.06 | 97 | 1007.0 |
| 20260831065510 | 61 | 173 | 2.0 | 5.0 | 0.00 | 0.31 | 0.06 | 97 | 1007.0 |
| 20260831065011 | 61 | 177 | 1.0 | 5.0 | 0.00 | 0.31 | 0.06 | 97 | 1007.1 |
| 20260831064509 | 61 | 169 | 0.0 | 3.0 | 0.00 | 0.31 | 0.06 | 97 | 1007.0 |
| 20260831064009 | 61 | 213 | 1.0 | 6.0 | 0.00 | 0.31 | 0.06 | 97 | 1007.1 |
| 20260831063508 | 61 | 186 | 2.0 | 6.0 | 0.00 | 0.31 | 0.06 | 97 | 1007.1 |
| 20260831063008 | 60 | 198 | 2.0 | 6.0 | 0.00 | 0.31 | 0.06 | 98 | 1007.2 |
| 20260831062507 | 60 | 205 | 1.0 | 7.0 | 0.00 | 0.31 | 0.06 | 97 | 1007.1 |
| 20260831062009 | 60 | 200 | 2.0 | 4.0 | 0.01 | 0.31 | 0.06 | 98 | 1007.2 |
| 20260831061504 | 60 | 202 | 0.0 | 3.0 | 0.01 | 0.31 | 0.06 | 98 | 1007.2 |
| 20260831061004 | 60 | 202 | 1.0 | 4.0 | 0.01 | 0.31 | 0.06 | 98 | 1007.3 |
| 20260831060502 | 59 | 202 | 1.0 | 4.0 | 0.01 | 0.31 | 0.06 | 98 | 1007.3 |
| 20260831055559 | 59 | 196 | 0.0 | 3.0 | 0.01 | 0.31 | 0.06 | 98 | 1007.2 |
| 20260831055058 | 58 | 196 | 0.0 | 3.0 | 0.01 | 0.31 | 0.06 | 98 | 1007.3 |
| 20260831054558 | 57 | 227 | 0.0 | 1.0 | 0.01 | 0.31 | 0.06 | 98 | 1007.3 |
| 20260831054055 | 56 | 227 | 0.0 | 0.0 | 0.01 | 0.31 | 0.06 | 98 | 1007.3 |
| 20260831053557 | 55 | 227 | 0.0 | 0.0 | 0.01 | 0.31 | 0.06 | 97 | 1007.3 |
| 20260831053053 | 55 | 227 | 0.0 | 0.0 | 0.01 | 0.31 | 0.06 | 97 | 1007.4 |
| 20260831052553 | 55 | 227 | 0.0 | 0.0 | 0.01 | 0.31 | 0.06 | 97 | 1007.4 |
| 20260831052051 | 55 | 227 | 0.0 | 0.0 | 0.00 | 0.31 | 0.06 | 97 | 1007.4 |
| 20260831051554 | 55 | 227 | 0.0 | 0.0 | 0.01 | 0.31 | 0.06 | 97 | 1007.5 |
| 20260831051050 | 55 | 227 | 0.0 | 0.0 | 0.01 | 0.31 | 0.06 | 97 | 1007.5 |
| 20260831050549 | 55 | 227 | 0.0 | 0.0 | 0.01 | 0.31 | 0.06 | 97 | 1007.5 |
| 20260831050049 | 55 | 227 | 0.0 | 0.0 | 0.01 | 0.31 | 0.06 | 97 | 1007.6 |
| 20260831045548 | 55 | 227 | 0.0 | 0.0 | 0.01 | 0.31 | 0.06 | 97 | 1007.6 |
| 20260831045048 | 55 | 227 | 0.0 | 1.0 | 0.01 | 0.31 | 0.06 | 97 | 1007.6 |
| 20260831044554 | 55 | 227 | 0.0 | 1.0 | 0.01 | 0.31 | 0.06 | 97 | 1007.6 |
| 20260831044047 | 55 | 227 | 0.0 | 0.0 | 0.01 | 0.31 | 0.06 | 97 | 1007.6 |
| 20260831043546 | 55 | 227 | 0.0 | 0.0 | 0.01 | 0.31 | 0.06 | 97 | 1007.5 |
| 20260831043046 | 55 | 227 | 0.0 | 0.0 | 0.01 | 0.31 | 0.06 | 97 | 1007.5 |
| 20260831042549 | 55 | 227 | 0.0 | 0.0 | 0.01 | 0.31 | 0.06 | 97 | 1007.5 |
| 20260831042045 | 55 | 227 | 0.0 | 0.0 | 0.01 | 0.31 | 0.06 | 97 | 1007.6 |
| 20260831041551 | 55 | 227 | 0.0 | 0.0 | 0.00 | 0.30 | 0.05 | 96 | 1007.6 |
| 20260831041048 | 55 | 227 | 0.0 | 0.0 | 0.00 | 0.30 | 0.05 | 96 | 1007.6 |
| 20260831040544 | 55 | 227 | 0.0 | 0.0 | 0.00 | 0.30 | 0.05 | 96 | 1007.6 |
| 20260831040043 | 55 | 227 | 0.0 | 0.0 | 0.00 | 0.30 | 0.05 | 96 | 1007.6 |
| 20260831035546 | 55 | 227 | 0.0 | 0.0 | 0.00 | 0.30 | 0.05 | 96 | 1007.6 |
| 20260831035042 | 55 | 227 | 0.0 | 0.0 | 0.00 | 0.30 | 0.05 | 96 | 1007.6 |
| 20260831034542 | 55 | 227 | 0.0 | 0.0 | 0.00 | 0.30 | 0.05 | 96 | 1007.6 |
| 20260831034042 | 55 | 227 | 0.0 | 0.0 | 0.01 | 0.30 | 0.05 | 96 | 1007.7 |
| 20260831033542 | 56 | 227 | 0.0 | 0.0 | 0.01 | 0.30 | 0.05 | 96 | 1007.7 |
| 20260831033042 | 56 | 227 | 0.0 | 0.0 | 0.01 | 0.30 | 0.05 | 96 | 1007.7 |
| 20260831032541 | 56 | 227 | 0.0 | 0.0 | 0.01 | 0.30 | 0.05 | 96 | 1007.7 |
| 20260831032040 | 56 | 227 | 0.0 | 0.0 | 0.01 | 0.30 | 0.05 | 96 | 1007.7 |
| 20260831031540 | 56 | 227 | 0.0 | 0.0 | 0.01 | 0.30 | 0.05 | 97 | 1007.7 |
| 20260831031043 | 56 | 227 | 0.0 | 1.0 | 0.01 | 0.30 | 0.05 | 97 | 1007.8 |
| 20260831030541 | 56 | 227 | 0.0 | 0.0 | 0.01 | 0.30 | 0.05 | 97 | 1007.8 |
| 20260831030039 | 56 | 227 | 0.0 | 2.0 | 0.02 | 0.30 | 0.05 | 97 | 1007.9 |
| 20260831025538 | 56 | 227 | 0.0 | 2.0 | 0.02 | 0.30 | 0.05 | 96 | 1008.0 |
| 20260831025038 | 56 | 227 | 0.0 | 0.0 | 0.02 | 0.30 | 0.05 | 96 | 1008.0 |
| 20260831024541 | 56 | 227 | 0.0 | 0.0 | 0.02 | 0.30 | 0.05 | 96 | 1007.9 |
| 20260831024038 | 56 | 227 | 0.0 | 0.0 | 0.01 | 0.28 | 0.04 | 96 | 1008.0 |
| 20260831023537 | 56 | 227 | 0.0 | 0.0 | 0.01 | 0.28 | 0.04 | 96 | 1007.9 |
| 20260831023138 | 56 | 227 | 0.0 | 0.0 | 0.01 | 0.28 | 0.04 | 96 | 1007.9 |
| 20260831022537 | 56 | 227 | 0.0 | 0.0 | 0.01 | 0.28 | 0.04 | 96 | 1007.9 |
| 20260831022036 | 56 | 227 | 0.0 | 1.0 | 0.01 | 0.28 | 0.04 | 96 | 1007.9 |
| 20260831021539 | 57 | 227 | 0.0 | 1.0 | 0.01 | 0.28 | 0.04 | 96 | 1007.9 |
| 20260831021038 | 57 | 227 | 0.0 | 0.0 | 0.01 | 0.28 | 0.04 | 96 | 1008.0 |
| 20260831020535 | 57 | 227 | 0.0 | 1.0 | 0.01 | 0.28 | 0.04 | 96 | 1008.0 |
| 20260831020035 | 57 | 227 | 0.0 | 2.0 | 0.00 | 0.28 | 0.03 | 96 | 1008.1 |
| 20260831015534 | 57 | 227 | 0.0 | 2.0 | 0.01 | 0.28 | 0.03 | 96 | 1008.1 |
| 20260831015034 | 57 | 227 | 0.0 | 2.0 | 0.01 | 0.28 | 0.03 | 96 | 1008.1 |
| 20260831014545 | 57 | 227 | 0.0 | 2.0 | 0.01 | 0.28 | 0.03 | 96 | 1008.1 |
| 20260831014033 | 58 | 227 | 0.0 | 1.0 | 0.01 | 0.28 | 0.03 | 96 | 1008.1 |
| 20260831013533 | 58 | 298 | 0.0 | 1.0 | 0.01 | 0.28 | 0.03 | 96 | 1008.1 |
| 20260831013040 | 58 | 298 | 0.0 | 1.0 | 0.01 | 0.28 | 0.03 | 96 | 1008.2 |
| 20260831012533 | 58 | 298 | 0.0 | 3.0 | 0.01 | 0.28 | 0.03 | 96 | 1008.1 |
| 20260831012033 | 58 | 298 | 0.0 | 3.0 | 0.01 | 0.28 | 0.03 | 96 | 1008.2 |
| 20260831011535 | 58 | 238 | 0.0 | 3.0 | 0.01 | 0.28 | 0.03 | 96 | 1008.2 |
| 20260831011032 | 58 | 199 | 0.0 | 3.0 | 0.01 | 0.28 | 0.03 | 96 | 1008.2 |
| 20260831010531 | 58 | 196 | 0.0 | 3.0 | 0.01 | 0.28 | 0.03 | 96 | 1008.3 |
| 20260831010031 | 58 | 190 | 0.0 | 3.0 | 0.01 | 0.28 | 0.03 | 96 | 1008.3 |
| 20260831005531 | 58 | 244 | 0.0 | 2.0 | 0.00 | 0.28 | 0.02 | 97 | 1008.2 |
| 20260831005033 | 58 | 234 | 0.0 | 3.0 | 0.01 | 0.28 | 0.02 | 97 | 1008.2 |
| 20260831004530 | 58 | 240 | 0.0 | 3.0 | 0.01 | 0.28 | 0.02 | 96 | 1008.2 |
| 20260831004033 | 57 | 239 | 0.0 | 2.0 | 0.01 | 0.28 | 0.02 | 96 | 1008.3 |
| 20260831003529 | 57 | 239 | 0.0 | 3.0 | 0.01 | 0.28 | 0.02 | 96 | 1008.2 |
| 20260831003028 | 57 | 239 | 0.0 | 3.0 | 0.01 | 0.28 | 0.02 | 96 | 1008.3 |
| 20260831002528 | 57 | 239 | 0.0 | 1.0 | 0.01 | 0.28 | 0.02 | 96 | 1008.3 |
| 20260831002027 | 57 | 239 | 0.0 | 1.0 | 0.01 | 0.28 | 0.02 | 96 | 1008.2 |
| 20260831001527 | 57 | 239 | 0.0 | 1.0 | 0.01 | 0.28 | 0.02 | 96 | 1008.2 |
| 20260831001028 | 57 | 239 | 0.0 | 2.0 | 0.01 | 0.28 | 0.02 | 96 | 1008.2 |
| 20260831000526 | 57 | 239 | 0.0 | 2.0 | 0.01 | 0.28 | 0.02 | 96 | 1008.1 |
| 20260831000036 | 56 | 239 | 0.0 | 1.0 | 0.01 | 0.28 | 0.02 | 96 | 1008.1 |
| 20260830235524 | 56 | 239 | 0.0 | 1.0 | 0.01 | 0.28 | 0.02 | 96 | 1008.1 |
| 20260830235023 | 56 | 239 | 0.0 | 1.0 | 0.00 | 0.27 | 0.02 | 96 | 1008.1 |
| 20260830234523 | 56 | 239 | 0.0 | 2.0 | 0.01 | 0.27 | 0.02 | 96 | 1008.1 |
| 20260830234024 | 56 | 239 | 0.0 | 2.0 | 0.01 | 0.27 | 0.02 | 96 | 1008.1 |
| 20260830233526 | 56 | 239 | 0.0 | 3.0 | 0.01 | 0.27 | 0.02 | 96 | 1008.2 |
| 20260830233029 | 56 | 239 | 0.0 | 3.0 | 0.01 | 0.27 | 0.02 | 96 | 1008.3 |
| 20260830232522 | 56 | 291 | 0.0 | 0.0 | 0.01 | 0.27 | 0.02 | 96 | 1008.3 |
| 20260830232122 | 56 | 291 | 0.0 | 1.0 | 0.02 | 0.27 | 0.02 | 96 | 1008.2 |
| 20260830231524 | 55 | 291 | 0.0 | 2.0 | 0.02 | 0.27 | 0.02 | 95 | 1008.1 |
| 20260830231021 | 55 | 291 | 0.0 | 2.0 | 0.02 | 0.27 | 0.02 | 95 | 1008.2 |
| 20260830230519 | 55 | 291 | 0.0 | 1.0 | 0.02 | 0.27 | 0.02 | 95 | 1008.2 |
| 20260830230019 | 55 | 291 | 0.0 | 1.0 | 0.02 | 0.27 | 0.02 | 95 | 1008.1 |
| 20260830225519 | 55 | 291 | 0.0 | 0.0 | 0.02 | 0.27 | 0.02 | 95 | 1008.2 |
| 20260830225019 | 55 | 291 | 0.0 | 0.0 | 0.02 | 0.27 | 0.02 | 95 | 1008.2 |
| 20260830224519 | 55 | 291 | 0.0 | 1.0 | 0.01 | 0.26 | 0.01 | 95 | 1008.2 |
| 20260830224018 | 55 | 291 | 0.0 | 1.0 | 0.01 | 0.26 | 0.01 | 95 | 1008.1 |
| 20260830223518 | 55 | 291 | 0.0 | 1.0 | 0.02 | 0.26 | 0.01 | 95 | 1008.2 |
| 20260830223018 | 55 | 291 | 0.0 | 1.0 | 0.02 | 0.26 | 0.01 | 95 | 1008.3 |
| 20260830222517 | 55 | 291 | 0.0 | 1.0 | 0.01 | 0.25 | 0.00 | 95 | 1008.2 |
| 20260830222021 | 55 | 291 | 0.0 | 1.0 | 0.01 | 0.25 | 0.00 | 94 | 1008.2 |
| 20260830221516 | 55 | 291 | 0.0 | 0.0 | 0.01 | 0.25 | 0.00 | 94 | 1008.2 |
| 20260830221016 | 55 | 291 | 0.0 | 0.0 | 0.01 | 0.25 | 0.00 | 94 | 1008.2 |
| 20260830220515 | 56 | 291 | 0.0 | 0.0 | 0.02 | 0.25 | 0.00 | 94 | 1008.2 |
| 20260830220015 | 56 | 291 | 0.0 | 1.0 | 0.02 | 0.25 | 0.00 | 94 | 1008.1 |
| 20260830215514 | 56 | 291 | 0.0 | 1.0 | 0.02 | 0.25 | 0.25 | 94 | 1008.2 |
| 20260830215015 | 56 | 291 | 0.0 | 0.0 | 0.02 | 0.25 | 0.25 | 93 | 1008.2 |
| 20260830214512 | 56 | 291 | 0.0 | 0.0 | 0.02 | 0.25 | 0.25 | 93 | 1008.1 |
| 20260830214011 | 57 | 291 | 0.0 | 0.0 | 0.02 | 0.25 | 0.25 | 93 | 1008.2 |
| 20260830213511 | 57 | 291 | 0.0 | 0.0 | 0.01 | 0.24 | 0.24 | 93 | 1008.2 |
| 20260830213010 | 57 | 291 | 0.0 | 0.0 | 0.01 | 0.24 | 0.24 | 93 | 1008.1 |
| 20260830212509 | 57 | 291 | 0.0 | 2.0 | 0.02 | 0.24 | 0.24 | 93 | 1008.2 |
| 20260830212009 | 57 | 291 | 0.0 | 1.0 | 0.02 | 0.24 | 0.24 | 93 | 1008.2 |
| 20260830211513 | 58 | 291 | 0.0 | 1.0 | 0.02 | 0.24 | 0.24 | 93 | 1008.1 |
| 20260830211008 | 58 | 291 | 0.0 | 1.0 | 0.02 | 0.24 | 0.24 | 93 | 1008.1 |
| 20260830210506 | 58 | 291 | 0.0 | 4.0 | 0.01 | 0.24 | 0.24 | 93 | 1008.1 |
| 20260830210006 | 58 | 291 | 0.0 | 4.0 | 0.01 | 0.24 | 0.24 | 93 | 1008.1 |
| 20260830205510 | 58 | 215 | 0.0 | 3.0 | 0.01 | 0.24 | 0.24 | 94 | 1008.1 |
| 20260830205005 | 58 | 240 | 0.0 | 3.0 | 0.02 | 0.24 | 0.24 | 93 | 1008.1 |
| 20260830204506 | 58 | 294 | 0.0 | 3.0 | 0.02 | 0.24 | 0.24 | 93 | 1008.0 |
| 20260830204005 | 58 | 148 | 0.0 | 2.0 | 0.02 | 0.24 | 0.24 | 93 | 1008.1 |
| 20260830203505 | 58 | 214 | 0.0 | 1.0 | 0.02 | 0.24 | 0.24 | 94 | 1008.0 |
| 20260830203006 | 58 | 214 | 0.0 | 2.0 | 0.02 | 0.24 | 0.24 | 94 | 1008.0 |
| 20260830202505 | 58 | 214 | 0.0 | 2.0 | 0.01 | 0.23 | 0.23 | 94 | 1008.0 |
| 20260830202004 | 58 | 214 | 0.0 | 2.0 | 0.01 | 0.23 | 0.23 | 93 | 1007.9 |
| 20260830201505 | 58 | 214 | 0.0 | 4.0 | 0.01 | 0.23 | 0.23 | 93 | 1007.9 |
| 20260830201002 | 58 | 214 | 0.0 | 4.0 | 0.01 | 0.23 | 0.23 | 93 | 1007.9 |
| 20260830200501 | 58 | 212 | 0.0 | 4.0 | 0.02 | 0.23 | 0.23 | 93 | 1007.7 |
| 20260830200001 | 58 | 194 | 0.0 | 4.0 | 0.02 | 0.23 | 0.23 | 93 | 1007.7 |
| 20260830195604 | 58 | 250 | 0.0 | 2.0 | 0.02 | 0.23 | 0.23 | 93 | 1007.7 |
| 20260830195106 | 58 | 241 | 0.0 | 3.0 | 0.01 | 0.22 | 0.22 | 93 | 1007.6 |
| 20260830194603 | 59 | 289 | 1.0 | 3.0 | 0.02 | 0.22 | 0.22 | 93 | 1007.5 |
| 20260830194102 | 59 | 324 | 0.0 | 1.0 | 0.02 | 0.22 | 0.22 | 93 | 1007.5 |
| 20260830193557 | 59 | 325 | 0.0 | 2.0 | 0.02 | 0.22 | 0.22 | 93 | 1007.5 |
| 20260830193057 | 59 | 324 | 0.0 | 2.0 | 0.02 | 0.22 | 0.22 | 93 | 1007.5 |
| 20260830192556 | 59 | 325 | 0.0 | 2.0 | 0.02 | 0.22 | 0.22 | 93 | 1007.4 |
| 20260830192101 | 59 | 331 | 0.0 | 3.0 | 0.02 | 0.22 | 0.22 | 93 | 1007.4 |
| 20260830191556 | 59 | 277 | 0.0 | 3.0 | 0.02 | 0.22 | 0.22 | 92 | 1007.3 |
| 20260830191054 | 60 | 320 | 0.0 | 3.0 | 0.02 | 0.22 | 0.22 | 92 | 1007.2 |
| 20260830190554 | 60 | 271 | 0.0 | 3.0 | 0.01 | 0.21 | 0.21 | 92 | 1007.2 |
| 20260830190054 | 60 | 272 | 0.0 | 5.0 | 0.02 | 0.21 | 0.21 | 92 | 1007.1 |
| 20260830185553 | 60 | 261 | 1.0 | 5.0 | 0.02 | 0.21 | 0.21 | 92 | 1007.1 |
| 20260830185054 | 60 | 208 | 0.0 | 5.0 | 0.02 | 0.21 | 0.21 | 91 | 1007.0 |
| 20260830184552 | 60 | 81 | 2.0 | 5.0 | 0.01 | 0.20 | 0.20 | 91 | 1006.9 |
| 20260830184051 | 60 | 318 | 0.0 | 5.0 | 0.02 | 0.20 | 0.20 | 91 | 1006.8 |
| 20260830183550 | 61 | 19 | 2.0 | 5.0 | 0.02 | 0.20 | 0.20 | 91 | 1006.7 |
| 20260830183050 | 61 | 218 | 1.0 | 9.0 | 0.02 | 0.20 | 0.20 | 91 | 1006.6 |
| 20260830182549 | 61 | 243 | 2.0 | 9.0 | 0.02 | 0.20 | 0.20 | 91 | 1006.5 |
| 20260830182049 | 61 | 292 | 2.0 | 6.0 | 0.02 | 0.20 | 0.20 | 91 | 1006.5 |
| 20260830181549 | 61 | 196 | 2.0 | 6.0 | 0.02 | 0.20 | 0.20 | 91 | 1006.4 |
| 20260830181048 | 61 | 309 | 1.0 | 6.0 | 0.02 | 0.20 | 0.20 | 91 | 1006.3 |
| 20260830180550 | 61 | 327 | 1.0 | 7.0 | 0.02 | 0.20 | 0.20 | 91 | 1006.3 |
| 20260830180050 | 61 | 215 | 1.0 | 8.0 | 0.02 | 0.20 | 0.20 | 90 | 1006.2 |
| 20260830175545 | 61 | 218 | 0.0 | 5.0 | 0.02 | 0.20 | 0.20 | 90 | 1006.2 |
| 20260830175048 | 61 | 238 | 0.0 | 4.0 | 0.02 | 0.20 | 0.20 | 90 | 1006.2 |
| 20260830174545 | 62 | 190 | 1.0 | 4.0 | 0.02 | 0.20 | 0.20 | 90 | 1006.1 |
| 20260830174045 | 62 | 329 | 0.0 | 5.0 | 0.02 | 0.19 | 0.19 | 90 | 1006.0 |
| 20260830173543 | 62 | 305 | 1.0 | 7.0 | 0.02 | 0.19 | 0.19 | 90 | 1005.9 |
| 20260830173042 | 62 | 281 | 2.0 | 7.0 | 0.02 | 0.19 | 0.19 | 90 | 1005.8 |
| 20260830172547 | 62 | 219 | 2.0 | 8.0 | 0.02 | 0.19 | 0.19 | 90 | 1005.7 |
| 20260830172043 | 62 | 160 | 1.0 | 8.0 | 0.02 | 0.19 | 0.19 | 90 | 1005.7 |
| 20260830171542 | 62 | 267 | 2.0 | 8.0 | 0.02 | 0.19 | 0.19 | 91 | 1005.6 |
| 20260830171045 | 62 | 288 | 2.0 | 8.0 | 0.02 | 0.19 | 0.19 | 90 | 1005.5 |
| 20260830170541 | 63 | 267 | 0.0 | 8.0 | 0.02 | 0.19 | 0.19 | 90 | 1005.5 |
| 20260830170042 | 63 | 263 | 2.0 | 11.0 | 0.02 | 0.18 | 0.18 | 89 | 1005.4 |
| 20260830165541 | 63 | 213 | 2.0 | 11.0 | 0.02 | 0.18 | 0.18 | 89 | 1005.3 |
| 20260830165043 | 63 | 291 | 2.0 | 9.0 | 0.02 | 0.18 | 0.18 | 89 | 1005.3 |
| 20260830164557 | 64 | 294 | 3.0 | 10.0 | 0.01 | 0.17 | 0.17 | 89 | 1005.2 |
| 20260830164041 | 64 | 288 | 2.0 | 10.0 | 0.01 | 0.17 | 0.17 | 90 | 1005.1 |
| 20260830163541 | 64 | 225 | 2.0 | 9.0 | 0.01 | 0.17 | 0.17 | 90 | 1005.0 |
| 20260830163040 | 64 | 269 | 2.0 | 9.0 | 0.01 | 0.17 | 0.17 | 92 | 1005.0 |
| 20260830162540 | 64 | 228 | 1.0 | 7.0 | 0.02 | 0.17 | 0.17 | 92 | 1004.9 |
| 20260830162039 | 63 | 265 | 0.0 | 9.0 | 0.02 | 0.17 | 0.17 | 93 | 1004.8 |
| 20260830161540 | 63 | 302 | 1.0 | 9.0 | 0.02 | 0.17 | 0.17 | 92 | 1004.7 |
| 20260830161038 | 63 | 173 | 1.0 | 7.0 | 0.01 | 0.17 | 0.17 | 93 | 1004.7 |
| 20260830160538 | 63 | 246 | 2.0 | 10.0 | 0.01 | 0.17 | 0.17 | 93 | 1004.6 |
| 20260830160039 | 63 | 225 | 2.0 | 10.0 | 0.01 | 0.17 | 0.17 | 93 | 1004.6 |
| 20260830155538 | 63 | 186 | 2.0 | 10.0 | 0.01 | 0.17 | 0.17 | 94 | 1004.5 |
| 20260830155041 | 63 | 236 | 2.0 | 6.0 | 0.02 | 0.17 | 0.17 | 95 | 1004.4 |
| 20260830154538 | 63 | 253 | 1.0 | 5.0 | 0.02 | 0.17 | 0.17 | 95 | 1004.3 |
| 20260830154038 | 63 | 269 | 1.0 | 5.0 | 0.02 | 0.17 | 0.17 | 95 | 1004.2 |
| 20260830153538 | 63 | 254 | 1.0 | 5.0 | 0.02 | 0.17 | 0.17 | 95 | 1004.2 |
| 20260830153038 | 63 | 201 | 2.0 | 7.0 | 0.02 | 0.17 | 0.17 | 95 | 1004.1 |
| 20260830152537 | 63 | 209 | 1.0 | 8.0 | 0.02 | 0.16 | 0.16 | 95 | 1004.1 |
| 20260830152037 | 63 | 255 | 3.0 | 8.0 | 0.02 | 0.16 | 0.16 | 95 | 1004.0 |
| 20260830151541 | 63 | 285 | 2.0 | 8.0 | 0.02 | 0.16 | 0.16 | 95 | 1003.9 |
| 20260830151037 | 63 | 237 | 2.0 | 8.0 | 0.02 | 0.16 | 0.16 | 95 | 1003.9 |
| 20260830150537 | 63 | 257 | 1.0 | 7.0 | 0.02 | 0.16 | 0.16 | 95 | 1003.9 |
| 20260830150037 | 64 | 258 | 2.0 | 7.0 | 0.02 | 0.16 | 0.16 | 95 | 1003.8 |
| 20260830145537 | 64 | 173 | 1.0 | 5.0 | 0.01 | 0.16 | 0.15 | 95 | 1003.7 |
| 20260830145036 | 64 | 323 | 1.0 | 5.0 | 0.02 | 0.16 | 0.15 | 95 | 1003.6 |
| 20260830144536 | 64 | 325 | 1.0 | 5.0 | 0.02 | 0.16 | 0.15 | 95 | 1003.6 |
| 20260830144035 | 64 | 248 | 1.0 | 5.0 | 0.02 | 0.16 | 0.15 | 95 | 1003.5 |
| 20260830143536 | 64 | 281 | 2.0 | 7.0 | 0.02 | 0.16 | 0.15 | 95 | 1003.4 |
| 20260830143044 | 64 | 271 | 1.0 | 5.0 | 0.02 | 0.16 | 0.15 | 95 | 1003.4 |
| 20260830142535 | 64 | 344 | 1.0 | 6.0 | 0.02 | 0.15 | 0.14 | 94 | 1003.3 |
| 20260830142035 | 64 | 254 | 2.0 | 6.0 | 0.02 | 0.15 | 0.14 | 94 | 1003.3 |
| 20260830141540 | 64 | 234 | 1.0 | 4.0 | 0.02 | 0.15 | 0.14 | 94 | 1003.2 |
| 20260830141034 | 65 | 274 | 1.0 | 7.0 | 0.02 | 0.15 | 0.14 | 93 | 1003.1 |
| 20260830140534 | 65 | 133 | 0.0 | 7.0 | 0.02 | 0.15 | 0.14 | 93 | 1003.0 |
| 20260830140041 | 65 | 291 | 1.0 | 5.0 | 0.02 | 0.15 | 0.14 | 93 | 1002.9 |
| 20260830135534 | 65 | 249 | 1.0 | 5.0 | 0.02 | 0.17 | 0.14 | 92 | 1002.8 |
| 20260830135034 | 66 | 291 | 2.0 | 4.0 | 0.01 | 0.16 | 0.13 | 92 | 1002.8 |
| 20260830134541 | 67 | 296 | 1.0 | 4.0 | 0.01 | 0.16 | 0.13 | 92 | 1002.7 |
| 20260830134035 | 67 | 250 | 0.0 | 5.0 | 0.01 | 0.16 | 0.13 | 92 | 1002.6 |
| 20260830133534 | 67 | 250 | 1.0 | 5.0 | 0.02 | 0.16 | 0.13 | 92 | 1002.5 |
| 20260830133033 | 67 | 326 | 0.0 | 4.0 | 0.01 | 0.15 | 0.13 | 92 | 1002.4 |
| 20260830132534 | 67 | 216 | 1.0 | 6.0 | 0.01 | 0.15 | 0.13 | 92 | 1002.3 |